CAL5304 RJGG-CYYZ

Flight info

Callsign CAL5304
Flight time N/A
Altitude 31000
Route CBE V17 XAC Y233 UTIBO Y803 POROT Y809 AVBET OTR11 LEPKI 40N160E 44N170E/N0493F310 46N180E 47N170W 48N160W 49N150W 50N140W/N0480F330 51N130W 51N120W 5030N11000W 49N100W/N0481F350 DCT KP12K DCT SSM DCT TUDAN BOXUM7
Aircraft B77L/H-SDE1E2E3FGHIJ1J2J3J4J5M1P2RWY/LB1D1

Departure

Time 2026-05-06 00:49
Airport Chubu Centrair International Airport (RJGG)

Arrival

Time N/A
Airport Toronto Pearson International Airport (CYYZ)
Time Latitude Longitude Altitude Speed Heading
2026-05-06 00:31 34.86876 136.80853 33 ft 0 kts 76°
2026-05-06 00:41 34.86873 136.80840 33 ft 3 kts 75°
2026-05-06 00:42 34.86866 136.80812 33 ft 3 kts 68°
2026-05-06 00:42 34.86856 136.80785 33 ft 3 kts 58°
2026-05-06 00:42 34.86841 136.80762 31 ft 3 kts 36°
2026-05-06 00:42 34.86823 136.80753 31 ft 2 kts 347°
2026-05-06 00:43 34.86821 136.80753 33 ft 1 kts 346°
2026-05-06 00:44 34.86830 136.80750 32 ft 5 kts 346°
2026-05-06 00:45 34.86902 136.80731 32 ft 15 kts 348°
2026-05-06 00:45 34.87004 136.80710 33 ft 15 kts 351°
2026-05-06 00:45 34.87105 136.80688 33 ft 15 kts 349°
2026-05-06 00:45 34.87206 136.80664 33 ft 15 kts 348°
2026-05-06 00:46 34.87307 136.80638 33 ft 15 kts 349°
2026-05-06 00:46 34.87391 136.80619 33 ft 9 kts 349°
2026-05-06 00:46 34.87438 136.80577 32 ft 9 kts 283°
2026-05-06 00:46 34.87428 136.80501 33 ft 9 kts 259°
2026-05-06 00:47 34.87416 136.80425 32 ft 9 kts 257°
2026-05-06 00:47 34.87402 136.80349 32 ft 10 kts 257°
2026-05-06 00:47 34.87385 136.80259 30 ft 11 kts 257°
2026-05-06 00:47 34.87371 136.80198 30 ft 5 kts 237°
2026-05-06 00:48 34.87342 136.80181 30 ft 5 kts 189°
2026-05-06 00:48 34.87302 136.80188 30 ft 12 kts 170°
2026-05-06 00:48 34.87064 136.80244 29 ft 70 kts 169°
2026-05-06 00:48 34.86334 136.80418 29 ft 142 kts 168°
2026-05-06 00:49 34.85146 136.80696 44 ft 202 kts 171°
2026-05-06 00:49 34.83769 136.81022 645 ft 200 kts 168°
2026-05-06 00:49 34.82563 136.81682 1343 ft 193 kts 136°
2026-05-06 00:49 34.81902 136.83151 1410 ft 210 kts 100°
2026-05-06 00:50 34.81794 136.84970 1590 ft 224 kts 94°
2026-05-06 00:50 34.81709 136.86916 2007 ft 236 kts 96°
2026-05-06 00:50 34.81613 136.88997 2239 ft 256 kts 95°
2026-05-06 00:50 34.81516 136.91193 2742 ft 265 kts 95°
2026-05-06 00:51 34.81419 136.93454 3313 ft 269 kts 95°